sat.trackr.live / text

‹ back to catalog

STARLINK-4558

NORAD 53426 · 2022-097AQ

PAYLOAD ACTIVE UNKNOWN

§ Identity

Operator
Country
US
Launch date
2022-08-10
Launch site
AFETR
Launch vehicle
Mass (kg)
RCS (m²)

Purposes: comms

External: N2YO · Heavens-Above · Gunter

§ Orbital elements

Epoch: 2026-09-19T14:29:23.801280Z

Period
93.85 min
Inclination
53.1603°
Eccentricity
0.0001103
Mean motion
15.34388633 rev/d
Perigee alt
462.0 km
Apogee alt
463.5 km
Semi-major
6,840.9 km
B*
1.5777e-5
RAAN
297.8392°
Arg perigee
74.0645°
Mean anomaly
286.0479°
Rev number
22,827

§ Raw data

STARLINK-45581 53426U 22097AQ  26262.60374770  .00000157  00000+0  15777-4 0  99952 53426  53.1603 297.8392 0001103  74.0645 286.0479 15.34388633228272

JSON: /api/v1/satellites/53426 · /tle

For live sub-satellite position, see the globe view (requires WebGL).

§ Visibility from observer

Set your observer location to see the next 7 days of passes ≥ 10°. The values pass through the URL so the page stays shareable.

No JS? Fill the form by hand. The geolocation button needs JavaScript.